TimeEDT,TemperatureF,Dew PointF,Humidity,Sea Level PressureIn,VisibilityMPH,Wind Direction,Wind SpeedMPH,Gust SpeedMPH,PrecipitationIn,Events,Conditions,WindDirDegrees,DateUTC
12:53 AM,45.0,26.1,48,29.92,10.0,SW,3.5,-,N/A,,Overcast,230,2012-11-02 04:53:00
1:53 AM,46.0,24.1,42,29.91,10.0,WSW,5.8,-,N/A,,Overcast,240,2012-11-02 05:53:00
2:53 AM,46.0,25.0,44,29.90,10.0,WSW,5.8,-,N/A,,Overcast,240,2012-11-02 06:53:00
3:53 AM,46.0,27.0,47,29.89,10.0,SW,3.5,-,N/A,,Overcast,220,2012-11-02 07:53:00
4:53 AM,46.0,28.9,51,29.87,10.0,Calm,Calm,-,N/A,,Overcast,0,2012-11-02 08:53:00
5:53 AM,46.9,28.0,48,29.87,10.0,SW,3.5,-,N/A,,Overcast,220,2012-11-02 09:53:00
6:53 AM,46.9,28.9,50,29.87,10.0,SW,4.6,-,N/A,,Mostly Cloudy,220,2012-11-02 10:53:00
7:53 AM,46.0,30.9,56,29.89,10.0,WSW,6.9,-,N/A,,Mostly Cloudy,250,2012-11-02 11:53:00
8:53 AM,46.0,33.1,61,29.91,10.0,WSW,3.5,-,N/A,,Overcast,250,2012-11-02 12:53:00
9:53 AM,48.9,34.0,56,29.95,10.0,West,8.1,-,N/A,,Mostly Cloudy,270,2012-11-02 13:53:00
10:53 AM,51.1,34.0,52,29.97,10.0,NNW,8.1,-,N/A,,Mostly Cloudy,340,2012-11-02 14:53:00
11:53 AM,53.1,34.0,48,29.97,10.0,North,8.1,-,N/A,,Clear,350,2012-11-02 15:53:00
12:53 PM,55.0,33.1,43,29.97,10.0,NW,8.1,-,N/A,,Clear,320,2012-11-02 16:53:00
1:53 PM,57.0,30.9,37,29.96,10.0,Calm,Calm,-,N/A,,Clear,0,2012-11-02 17:53:00
2:53 PM,57.9,28.9,33,29.96,10.0,North,5.8,-,N/A,,Clear,350,2012-11-02 18:53:00
3:53 PM,57.0,28.9,34,29.97,10.0,Variable,6.9,-,N/A,,Clear,0,2012-11-02 19:53:00
4:53 PM,57.0,28.0,33,29.98,10.0,NNW,9.2,-,N/A,,Clear,340,2012-11-02 20:53:00
5:53 PM,54.0,28.0,37,29.99,10.0,NNW,5.8,-,N/A,,Clear,340,2012-11-02 21:53:00
6:53 PM,50.0,28.9,44,30.01,10.0,NNW,5.8,-,N/A,,Clear,330,2012-11-02 22:53:00
7:53 PM,48.0,28.9,48,30.03,10.0,NNW,3.5,-,N/A,,Clear,330,2012-11-02 23:53:00
8:53 PM,43.0,30.9,62,30.04,10.0,NNE,3.5,-,N/A,,Clear,20,2012-11-03 00:53:00
9:53 PM,39.9,32.0,73,30.06,10.0,Calm,Calm,-,N/A,,Clear,0,2012-11-03 01:53:00
10:53 PM,39.0,30.9,73,30.07,10.0,Calm,Calm,-,N/A,,Clear,0,2012-11-03 02:53:00
11:53 PM,36.0,30.9,82,30.07,10.0,Calm,Calm,-,N/A,,Clear,0,2012-11-03 03:53:00